Regional Weather Roundup
Issued by NWS

Home | Current Version | Previous Version | Text Only | Print | Product List | Glossary Off
Versions: 1 2 3 4 5 6 7 8 9 10 11 12 13 14 15 16 17 18 19 20 21 22 23 24 25 26 27 28 29 30 31 32 33 34 35 36 37 38 39 40 41 42 43 44 45 46 47 48 49 50

000
ASUS43 KLMK 270210
RWRKY
KENTUCKY REGIONAL WEATHER ROUNDUP
NATIONAL WEATHER SERVICE LOUISVILLE KY
1000 PM EDT TUE MAY 26 2015

NOTE "FAIR" INDICATES FEW OR NO CLOUDS BELOW 12,000 FEET
WITH NO SIGNIFICANT WEATHER AND/OR OBSTRUCTIONS TO VISIBILITY.

KYZ001>023-026-027-061>063-070>075-270300-
WESTERN AND SOUTH CENTRAL KENTUCKY

CITY           SKY/WX    TMP DP  RH WIND       PRES   REMARKS
PADUCAH        CLEAR     70  61  73 S3        30.02R
HENDERSON      CLEAR     70  61  73 SW8       30.01R
OWENSBORO      PTCLDY    71  65  81 SW8       30.03R
HOPKINSVILLE   CLEAR     70  65  82 SW3       30.05R
BOWLING GREEN  MOCLDY    74  69  85 S7        30.07R
GLASGOW        CLOUDY    69  69 100 S5        30.08R
$$

KYZ024-025-028>034-038-045-046-053-270300-
NORTH CENTRAL KENTUCKY

CITY           SKY/WX    TMP DP  RH WIND       PRES   REMARKS
LOUISVILLE/SDF CLOUDY    71  66  84 S5        30.03R
LOUISVILLE/LOU CLOUDY    70  66  87 S6        30.03R
FORT KNOX      MOCLDY    68  66  92 S7        30.03R
$$

KYZ035>037-039>044-047>052-055>060-089>105-270300-
NORTHEAST KENTUCKY

CITY           SKY/WX    TMP DP  RH WIND       PRES   REMARKS
LEXINGTON      CLOUDY    67  64  90 S12       30.08R
COVINGTON      CLOUDY    68  65  90 S7        30.03S
FRANKFORT      CLOUDY    66  63  90 S9        30.05R
$$

KYZ054-064>069-076>088-106>120-270300-
SOUTHEAST KENTUCKY

CITY           SKY/WX    TMP DP  RH WIND       PRES   REMARKS
JACKSON        HVY RAIN  66  64  93 VRB5      30.16R VSB 1
LONDON         LGT RAIN  68  63  84 SE3       30.13F
SOMERSET       CLOUDY    66  66 100 S5        30.12S
MIDDLESBORO    DRIZZLE   72  67  84 S8G17     30.16R
MONTICELLO     CLOUDY    69  68  97 S8        30.13S
$$



USA.gov is the U.S. government's official web portal to all federal, state and local government web resources and services.